Date String (YYYY-MM-DD hh:mm:ss) UTC,Instrument flags,absolute air pressure of the measurement (hPa),sample flow rate (lpm),inlet stack bypass flow (lpm),air temperature of the measurement (°C),ambient temperature measured by the external sensor (°C),aerosol sample conditioner tube jacket temperature (°C),OPC LED temperature (°C),internal box temperature (°C),relative humidity of the measurement (%),span deviation,mass concentration of particles derived from Lorenz-Mie calculation of OPC scattering (μg/m³),mass concentration of particles derived from Lorenz-Mie calculation of OPC scattering (μg/m³),mass concentration of particles derived from Lorenz-Mie calculation of OPC scattering (μg/m³)
DateTimeUTC,F1_M11,P_M11,Q1_M11,Q2_M11,T1_M11,T2_M11,T3_M11,T4_M11,T5_M11,U1_M11,ZSPAN_M11,X0_M11,X2_M11,X1_M11
2024-03-12 14:00:00,SystemResetWarning,0824.5,5.00,000.00,019.5,018.9,000.0,027.9,021.3,15.0,0000.0,0007.92,0002.86,0001.38
2024-03-12 14:01:00,SystemResetWarning,0824.5,5.01,000.00,019.5,018.9,000.0,027.9,021.3,15.4,0000.0,0007.99,0002.88,0001.37
2024-03-12 14:02:00,SystemResetWarning,0824.6,5.00,000.00,019.5,019.0,000.0,027.9,021.3,15.6,0000.0,0008.06,0002.83,0001.36
2024-03-12 14:03:00,SystemResetWarning,0824.5,5.00,000.00,019.5,019.0,000.0,027.9,021.3,15.7,0000.0,0008.50,0002.89,0001.38
2024-03-12 14:04:00,SystemResetWarning,0824.5,5.00,000.00,019.5,019.0,000.0,027.9,021.3,15.5,0000.0,0008.29,0002.86,0001.38
2024-03-12 14:05:00,SystemResetWarning,0824.5,5.00,000.00,019.5,019.0,000.0,027.9,021.3,15.6,0000.0,0008.00,0002.83,0001.39
2024-03-12 14:06:00,SystemResetWarning,0824.5,4.99,000.00,019.5,019.0,000.0,027.9,021.3,15.9,0000.0,0007.23,0002.75,0001.38
2024-03-12 14:07:00,SystemResetWarning,0824.5,5.00,000.00,019.5,019.0,000.0,027.9,021.3,16.0,0000.0,0007.67,0002.78,0001.38
2024-03-12 14:08:00,SystemResetWarning,0824.5,5.01,000.00,019.6,019.0,000.0,028.0,021.3,15.3,0000.0,0007.84,0002.86,0001.39
2024-03-12 14:09:00,SystemResetWarning,0824.6,5.01,000.00,019.6,019.0,000.0,028.0,021.4,15.9,0000.0,0007.87,0002.89,0001.40
2024-03-12 14:10:00,SystemResetWarning,0824.5,4.99,000.00,019.6,019.0,000.0,028.0,021.4,14.7,0000.0,0008.27,0002.95,0001.40
2024-03-12 14:11:00,SystemResetWarning,0824.6,4.99,000.00,019.6,019.0,000.0,028.0,021.4,15.5,0000.0,0008.30,0002.92,0001.41
2024-03-12 14:12:00,SystemResetWarning,0824.7,5.00,000.00,019.6,019.0,000.0,028.0,021.4,15.2,0000.0,0008.33,0002.90,0001.41
2024-03-12 14:13:00,SystemResetWarning,0824.7,5.01,000.00,019.6,019.0,000.0,028.0,021.4,15.5,0000.0,0008.30,0002.87,0001.40
2024-03-12 14:14:00,SystemResetWarning,0824.7,5.01,000.00,019.6,019.1,000.0,028.0,021.4,15.9,0000.0,0007.80,0002.79,0001.37
2024-03-12 14:15:00,SystemResetWarning,0824.7,5.00,000.00,019.6,019.1,000.0,028.0,021.4,15.9,0000.0,0008.13,0002.71,0001.34
2024-03-12 14:16:00,SystemResetWarning,0824.7,4.99,000.00,019.6,019.1,000.0,028.0,021.4,15.9,0000.0,0008.51,0002.73,0001.31
2024-03-12 14:17:00,SystemResetWarning,0824.7,5.00,000.00,019.6,019.1,000.0,028.0,021.4,15.9,0000.0,0008.98,0002.72,0001.31
2024-03-12 14:18:00,SystemResetWarning,0824.7,4.99,000.00,019.6,019.1,000.0,028.0,021.4,16.2,0000.0,0008.45,0002.62,0001.28
2024-03-12 14:19:00,SystemResetWarning,0824.7,5.01,000.00,019.6,019.1,000.0,028.0,021.4,16.1,0000.0,0008.59,0002.65,0001.26
2024-03-12 14:20:00,SystemResetWarning,0824.7,5.01,000.00,019.6,019.1,000.0,028.0,021.4,15.9,0000.0,0008.63,0002.69,0001.28
2024-03-12 14:21:00,SystemResetWarning,0824.7,5.01,000.00,019.7,019.1,000.0,028.0,021.4,15.4,0000.0,0008.36,0002.70,0001.28
2024-03-12 14:22:00,SystemResetWarning,0824.5,4.99,000.00,019.7,019.1,000.0,028.0,021.5,15.8,0000.0,0008.16,0002.66,0001.26
2024-03-12 14:23:00,SystemResetWarning,0824.5,5.00,000.00,019.7,019.2,000.0,028.0,021.5,15.7,0000.0,0007.95,0002.57,0001.25
2024-03-12 14:24:00,SystemResetWarning,0824.4,5.00,000.00,019.7,019.2,000.0,028.1,021.5,15.9,0000.0,0008.03,0002.62,0001.26
2024-03-12 14:25:00,SystemResetWarning,0824.4,5.01,000.00,019.7,019.2,000.0,028.1,021.5,16.1,0000.0,0008.77,0002.70,0001.28
2024-03-12 14:26:00,SystemResetWarning,0824.4,5.01,000.00,019.7,019.2,000.0,028.1,021.5,15.8,0000.0,0008.64,0002.72,0001.30
2024-03-12 14:27:00,SystemResetWarning,0824.4,5.00,000.00,019.7,019.2,000.0,028.1,021.5,15.6,0000.0,0008.18,0002.67,0001.32
2024-03-12 14:28:00,SystemResetWarning,0824.4,4.99,000.00,019.7,019.2,000.0,028.1,021.5,15.5,0000.0,0007.63,0002.68,0001.32
2024-03-12 14:29:00,SystemResetWarning,0824.4,5.00,000.00,019.7,019.2,000.0,028.1,021.5,15.5,0000.0,0007.74,0002.71,0001.34
2024-03-12 14:30:00,SystemResetWarning,0824.4,5.01,000.00,019.7,019.2,000.0,028.1,021.5,15.6,0000.0,0007.71,0002.71,0001.34
2024-03-12 14:31:00,SystemResetWarning,0824.3,5.01,000.00,019.8,019.2,000.0,028.1,021.6,15.4,0000.0,0007.90,0002.63,0001.33
2024-03-12 14:32:00,SystemResetWarning,0824.4,5.00,000.00,019.8,019.2,000.0,028.1,021.6,15.3,0000.0,0007.77,0002.55,0001.32
2024-03-12 14:33:00,SystemResetWarning,0824.3,5.00,000.00,019.8,019.3,000.0,028.1,021.6,15.2,0000.0,0007.91,0002.61,0001.34
2024-03-12 14:34:00,SystemResetWarning,0824.4,4.99,000.00,019.8,019.3,000.0,028.1,021.6,14.9,0000.0,0008.46,0002.79,0001.36
2024-03-12 14:35:00,SystemResetWarning,0824.3,5.01,000.00,019.8,019.3,000.0,028.1,021.6,15.3,0000.0,0008.74,0002.87,0001.37
2024-03-12 14:36:00,SystemResetWarning,0824.4,5.01,000.00,019.8,019.3,000.0,028.1,021.6,14.9,0000.0,0008.65,0002.86,0001.38
2024-03-12 14:37:00,SystemResetWarning,0824.4,5.01,000.00,019.8,019.3,000.0,028.2,021.6,14.8,0000.0,0008.41,0002.90,0001.39
2024-03-12 14:38:00,SystemResetWarning,0824.4,4.98,000.00,019.8,019.3,000.0,028.2,021.6,15.2,0000.0,0008.49,0002.91,0001.39
2024-03-12 14:39:00,SystemResetWarning,0824.4,5.00,000.00,019.9,019.3,000.0,028.2,021.6,14.8,0000.0,0009.46,0002.85,0001.39
2024-03-12 14:40:00,SystemResetWarning,0824.4,4.99,000.00,019.9,019.3,000.0,028.2,021.6,14.8,0000.0,0009.54,0002.89,0001.39
2024-03-12 14:41:00,SystemResetWarning,0824.4,5.01,000.00,019.9,019.3,000.0,028.2,021.7,14.1,0000.0,0009.35,0002.89,0001.40
2024-03-12 14:42:00,SystemResetWarning,0824.5,5.01,000.00,019.9,019.4,000.0,028.2,021.7,14.2,0000.0,0009.27,0002.88,0001.41
2024-03-12 14:43:00,SystemResetWarning,0824.5,5.01,000.00,019.9,019.4,000.0,028.2,021.7,14.5,0000.0,0009.85,0002.98,0001.41
2024-03-12 14:44:00,SystemResetWarning,0824.4,5.00,000.00,019.9,019.4,000.0,028.2,021.7,14.7,0000.0,0009.91,0003.01,0001.42
2024-03-12 14:45:00,SystemResetWarning,0824.3,5.00,000.00,019.9,019.4,000.0,028.2,021.7,14.1,0000.0,0009.56,0002.96,0001.42
2024-03-12 14:46:00,SystemResetWarning,0824.4,4.99,000.00,019.9,019.4,000.0,028.2,021.7,14.2,0000.0,0010.10,0002.97,0001.42
2024-03-12 14:47:00,SystemResetWarning,0824.4,4.99,000.00,019.9,019.4,000.0,028.2,021.7,14.5,0000.0,0009.84,0002.90,0001.40
2024-03-12 14:48:00,SystemResetWarning,0824.3,5.00,000.00,019.9,019.4,000.0,028.2,021.7,14.8,0000.0,0009.86,0002.85,0001.38
2024-03-12 14:49:00,SystemResetWarning,0824.3,5.00,000.00,019.9,019.4,000.0,028.2,021.7,14.3,0000.0,0009.74,0002.78,0001.37
2024-03-12 14:50:00,SystemResetWarning,0824.4,5.00,000.00,019.9,019.4,000.0,028.3,021.7,14.6,0000.0,0008.93,0002.86,0001.38
2024-03-12 14:51:00,SystemResetWarning,0824.4,5.01,000.00,019.9,019.4,000.0,028.3,021.7,14.6,0000.0,0008.60,0002.78,0001.36
2024-03-12 14:52:00,SystemResetWarning,0824.4,5.00,000.00,019.9,019.4,000.0,028.3,021.7,14.3,0000.0,0008.43,0002.72,0001.35
2024-03-12 14:53:00,SystemResetWarning,0824.4,4.99,000.00,019.9,019.4,000.0,028.3,021.7,14.7,0000.0,0008.23,0002.70,0001.33
2024-03-12 14:54:00,SystemResetWarning,0824.4,5.00,000.00,019.9,019.4,000.0,028.3,021.7,14.4,0000.0,0007.79,0002.70,0001.33
2024-03-12 14:55:00,SystemResetWarning,0824.4,4.99,000.00,019.9,019.4,000.0,028.3,021.7,14.4,0000.0,0007.57,0002.66,0001.31
2024-03-12 14:56:00,SystemResetWarning,0824.5,5.01,000.00,019.9,019.4,000.0,028.3,021.7,13.9,0000.0,0007.75,0002.62,0001.29
2024-03-12 14:57:00,SystemResetWarning,0824.5,5.01,000.00,020.0,019.4,000.0,028.3,021.7,14.3,0000.0,0007.34,0002.54,0001.27
2024-03-12 14:58:00,SystemResetWarning,0824.4,4.99,000.00,020.0,019.4,000.0,028.3,021.7,14.8,0000.0,0006.77,0002.54,0001.28
2024-03-12 14:59:00,SystemResetWarning,0824.4,5.00,000.00,020.0,019.4,000.0,028.3,021.7,14.9,0000.0,0006.89,0002.58,0001.28
